TimePST,TemperatureF,Dew PointF,Humidity,Sea Level PressureIn,VisibilityMPH,Wind Direction,Wind SpeedMPH,Gust SpeedMPH,PrecipitationIn,Events,Conditions,WindDirDegrees,DateUTC
12:53 AM,28.0,19.9,72,30.18,10.0,Calm,Calm,-,N/A,,Clear,0,2012-02-24 08:53:00
1:53 AM,28.0,19.9,72,30.18,10.0,Calm,Calm,-,N/A,,Clear,0,2012-02-24 09:53:00
2:53 AM,27.0,19.0,72,30.17,10.0,SSW,3.5,-,N/A,,Clear,200,2012-02-24 10:53:00
3:53 AM,25.0,19.0,78,30.18,10.0,Calm,Calm,-,N/A,,Clear,0,2012-02-24 11:53:00
4:53 AM,25.0,19.0,78,30.21,10.0,Calm,Calm,-,N/A,,Clear,0,2012-02-24 12:53:00
5:53 AM,24.1,18.0,77,30.23,10.0,South,3.5,-,N/A,,Clear,190,2012-02-24 13:53:00
6:53 AM,23.0,18.0,81,30.25,10.0,South,3.5,-,N/A,,Clear,190,2012-02-24 14:53:00
7:53 AM,26.1,19.0,75,30.27,10.0,South,3.5,-,N/A,,Clear,170,2012-02-24 15:53:00
8:53 AM,34.0,21.9,61,30.25,10.0,Calm,Calm,-,N/A,,Clear,0,2012-02-24 16:53:00
9:53 AM,44.1,23.0,43,30.22,10.0,Calm,Calm,-,N/A,,Clear,0,2012-02-24 17:53:00
10:53 AM,50.0,21.9,33,30.18,10.0,Calm,Calm,-,N/A,,Clear,0,2012-02-24 18:53:00
11:53 AM,53.1,28.0,38,30.14,10.0,NNE,9.2,-,N/A,,Clear,30,2012-02-24 19:53:00
12:53 PM,52.0,28.0,40,30.11,10.0,NNE,6.9,-,N/A,,Clear,30,2012-02-24 20:53:00
1:53 PM,60.1,21.9,23,30.06,10.0,WSW,8.1,25.3,N/A,,Clear,240,2012-02-24 21:53:00
2:53 PM,60.1,24.1,25,30.05,10.0,SSW,9.2,17.3,N/A,,Clear,210,2012-02-24 22:53:00
3:53 PM,57.9,28.0,32,30.05,10.0,SW,10.4,19.6,N/A,,Clear,220,2012-02-24 23:53:00
4:53 PM,54.0,28.0,37,30.06,10.0,SSW,12.7,27.6,N/A,,Clear,200,2012-02-25 00:53:00
5:53 PM,50.0,26.1,39,30.08,10.0,Variable,4.6,-,N/A,,Clear,0,2012-02-25 01:53:00
6:53 PM,48.9,24.1,38,30.09,10.0,SSW,8.1,27.6,N/A,,Clear,210,2012-02-25 02:53:00
7:53 PM,48.9,21.0,33,30.06,10.0,SSW,15.0,25.3,N/A,,Clear,210,2012-02-25 03:53:00
8:53 PM,46.9,19.9,34,30.04,10.0,SSW,15.0,26.5,N/A,,Clear,200,2012-02-25 04:53:00
9:53 PM,46.0,21.9,39,30.03,10.0,SSW,18.4,33.4,N/A,,Clear,210,2012-02-25 05:53:00
10:53 PM,45.0,16.0,31,30.01,10.0,SSW,21.9,28.8,N/A,,Clear,200,2012-02-25 06:53:00
11:53 PM,44.1,12.0,27,30.00,10.0,SSW,11.5,25.3,N/A,,Clear,210,2012-02-25 07:53:00